Time,TemperatureF,DewpointF,PressureIn,WindDirection,WindDirectionDegrees,WindSpeedMPH,WindSpeedGustMPH,Humidity,HourlyPrecipIn,Conditions,Clouds,dailyrainin,SoftwareType,DateUTC
2013-03-31 00:00:00,38.6,25.5,30.05,NNW,328,0.0,0.0,59,0.00,CLR,CLR,0.00,WeatherDisplay:10.36,2013-03-31 04:00:00,
2013-03-31 00:01:00,38.6,25.5,30.05,NNW,328,0.0,0.0,59,0.00,CLR,CLR,0.00,WeatherDisplay:10.36,2013-03-31 04:01:00,
2013-03-31 00:06:00,38.3,26.0,30.05,NNW,328,0.0,0.0,61,0.00,CLR,CLR,0.00,WeatherDisplay:10.36,2013-03-31 04:06:00,
2013-03-31 00:12:00,38.0,25.7,30.05,NNW,328,0.0,0.0,61,0.00,CLR,CLR,0.00,WeatherDisplay:10.36,2013-03-31 04:12:00,
2013-03-31 00:18:00,37.8,25.9,30.05,NNW,328,0.0,0.0,62,0.00,CLR,CLR,0.00,WeatherDisplay:10.36,2013-03-31 04:18:00,
2013-03-31 00:23:00,37.6,26.1,30.05,NNW,328,0.0,0.0,63,0.00,CLR,CLR,0.00,WeatherDisplay:10.36,2013-03-31 04:23:00,
2013-03-31 00:28:00,37.5,26.0,30.05,NNW,328,0.0,0.0,63,0.00,CLR,CLR,0.00,WeatherDisplay:10.36,2013-03-31 04:28:00,
2013-03-31 00:33:00,37.2,26.1,30.05,NNW,328,0.0,0.0,64,0.00,CLR,CLR,0.00,WeatherDisplay:10.36,2013-03-31 04:33:00,
2013-03-31 00:38:00,37.0,26.3,30.05,NNW,328,0.0,0.0,65,0.00,CLR,CLR,0.00,WeatherDisplay:10.36,2013-03-31 04:38:00,
2013-03-31 00:43:00,36.9,26.2,30.05,NNW,328,0.0,0.0,65,0.00,CLR,CLR,0.00,WeatherDisplay:10.36,2013-03-31 04:43:00,
2013-03-31 00:48:00,36.8,26.5,30.05,NNW,328,0.0,0.0,66,0.00,CLR,CLR,0.00,WeatherDisplay:10.36,2013-03-31 04:48:00,
2013-03-31 00:53:00,36.6,26.3,30.05,NNW,328,0.0,0.0,66,0.00,CLR,CLR,0.00,WeatherDisplay:10.36,2013-03-31 04:53:00,
2013-03-31 00:59:00,36.5,26.2,30.05,NNW,328,0.0,0.0,66,0.00,CLR,CLR,0.00,WeatherDisplay:10.36,2013-03-31 04:59:00,
2013-03-31 01:04:00,36.2,26.3,30.05,NNW,328,0.0,0.0,67,0.00,CLR,CLR,0.00,WeatherDisplay:10.36,2013-03-31 05:04:00,
2013-03-31 01:09:00,35.9,26.4,30.05,NNW,328,0.0,0.0,68,0.00,CLR,CLR,0.00,WeatherDisplay:10.36,2013-03-31 05:09:00,
2013-03-31 01:14:00,35.6,26.4,30.05,NNW,328,0.0,0.0,69,0.00,CLR,CLR,0.00,WeatherDisplay:10.36,2013-03-31 05:14:00,
2013-03-31 01:19:00,35.3,26.5,30.05,NNW,328,0.0,0.0,70,0.00,CLR,CLR,0.00,WeatherDisplay:10.36,2013-03-31 05:19:00,
2013-03-31 01:24:00,35.0,26.9,30.05,NNW,328,0.0,0.0,72,0.00,CLR,CLR,0.00,WeatherDisplay:10.36,2013-03-31 05:24:00,
2013-03-31 01:29:00,35.0,27.2,30.05,NNW,328,0.0,0.0,73,0.00,CLR,CLR,0.00,WeatherDisplay:10.36,2013-03-31 05:29:00,
2013-03-31 01:34:00,34.9,27.1,30.05,NNW,328,0.0,0.0,73,0.00,CLR,CLR,0.00,WeatherDisplay:10.36,2013-03-31 05:34:00,
2013-03-31 01:39:00,34.7,26.9,30.05,NNW,328,0.0,0.0,73,0.00,CLR,CLR,0.00,WeatherDisplay:10.36,2013-03-31 05:39:00,
2013-03-31 01:44:00,34.7,26.6,30.05,NNW,328,0.0,0.0,72,0.00,CLR,CLR,0.00,WeatherDisplay:10.36,2013-03-31 05:44:00,
2013-03-31 01:49:00,34.7,26.6,30.05,NNW,328,0.0,0.0,72,0.00,CLR,CLR,0.00,WeatherDisplay:10.36,2013-03-31 05:49:00,
2013-03-31 01:54:00,34.6,26.2,30.05,NNW,328,0.0,0.0,71,0.00,CLR,CLR,0.00,WeatherDisplay:10.36,2013-03-31 05:54:00,
2013-03-31 01:59:00,34.6,26.2,30.05,NNW,328,0.0,0.0,71,0.00,CLR,CLR,0.00,WeatherDisplay:10.36,2013-03-31 05:59:00,
2013-03-31 02:04:00,34.4,26.0,30.05,NNW,328,0.0,0.0,71,0.00,CLR,CLR,0.00,WeatherDisplay:10.36,2013-03-31 06:04:00,
2013-03-31 02:09:00,34.3,25.9,30.05,NNW,328,0.0,0.0,71,0.00,CLR,CLR,0.00,WeatherDisplay:10.36,2013-03-31 06:09:00,
2013-03-31 02:14:00,34.1,25.7,30.05,NNW,328,0.0,0.0,71,0.00,CLR,CLR,0.00,WeatherDisplay:10.36,2013-03-31 06:14:00,
2013-03-31 02:20:00,34.0,25.9,30.05,NNW,328,0.0,0.0,72,0.00,CLR,CLR,0.00,WeatherDisplay:10.36,2013-03-31 06:20:00,
2013-03-31 02:25:00,33.8,25.7,30.05,NNW,328,0.0,0.0,72,0.00,CLR,CLR,0.00,WeatherDisplay:10.36,2013-03-31 06:25:00,
2013-03-31 02:30:00,33.8,25.7,30.05,NNW,328,0.0,0.0,72,0.00,CLR,CLR,0.00,WeatherDisplay:10.36,2013-03-31 06:30:00,
2013-03-31 02:35:00,33.8,25.4,30.05,NNW,328,0.0,0.0,71,0.00,CLR,CLR,0.00,WeatherDisplay:10.36,2013-03-31 06:35:00,
2013-03-31 02:40:00,33.7,25.6,30.05,SSE,148,0.0,0.0,72,0.00,CLR,CLR,0.00,WeatherDisplay:10.36,2013-03-31 06:40:00,
2013-03-31 02:45:00,33.7,26.0,30.05,SSE,148,0.0,0.0,73,0.00,CLR,CLR,0.00,WeatherDisplay:10.36,2013-03-31 06:45:00,
2013-03-31 02:50:00,33.5,25.4,30.05,SSE,148,0.0,0.0,72,0.00,CLR,CLR,0.00,WeatherDisplay:10.36,2013-03-31 06:50:00,
2013-03-31 02:55:00,33.5,25.4,30.05,SSE,148,0.0,0.0,72,0.00,CLR,CLR,0.00,WeatherDisplay:10.36,2013-03-31 06:55:00,
2013-03-31 03:00:00,33.4,25.3,30.04,SSE,148,0.0,0.0,72,0.00,CLR,CLR,0.00,WeatherDisplay:10.36,2013-03-31 07:00:00,
2013-03-31 03:06:00,33.4,25.3,30.04,SSE,148,0.0,0.0,72,0.00,CLR,CLR,0.00,WeatherDisplay:10.36,2013-03-31 07:06:00,
2013-03-31 03:11:00,33.4,25.3,30.03,SSE,148,0.0,0.0,72,0.00,CLR,CLR,0.00,WeatherDisplay:10.36,2013-03-31 07:11:00,
2013-03-31 03:17:00,33.4,25.3,30.03,SSE,148,0.0,0.0,72,0.00,CLR,CLR,0.00,WeatherDisplay:10.36,2013-03-31 07:17:00,
2013-03-31 03:22:00,33.4,25.3,30.03,SSE,148,0.0,0.0,72,0.00,CLR,CLR,0.00,WeatherDisplay:10.36,2013-03-31 07:22:00,
2013-03-31 03:27:00,33.2,25.1,30.03,SSE,148,0.0,0.0,72,0.00,CLR,CLR,0.00,WeatherDisplay:10.36,2013-03-31 07:27:00,
2013-03-31 03:32:00,32.9,25.2,30.03,SSE,148,0.0,0.0,73,0.00,CLR,CLR,0.00,WeatherDisplay:10.36,2013-03-31 07:32:00,
2013-03-31 03:37:00,32.7,25.0,30.03,SSE,148,0.0,0.0,73,0.00,CLR,CLR,0.00,WeatherDisplay:10.36,2013-03-31 07:37:00,
2013-03-31 03:43:00,32.4,24.7,30.03,SSE,148,0.0,0.0,73,0.00,CLR,CLR,0.00,WeatherDisplay:10.36,2013-03-31 07:43:00,
2013-03-31 03:48:00,32.2,24.5,30.03,SSE,148,0.0,0.0,73,0.00,CLR,CLR,0.00,WeatherDisplay:10.36,2013-03-31 07:48:00,
2013-03-31 03:53:00,32.2,24.5,30.03,SSE,148,0.0,0.0,73,0.00,CLR,CLR,0.00,WeatherDisplay:10.36,2013-03-31 07:53:00,
2013-03-31 03:58:00,32.1,24.7,30.03,SSE,148,0.0,0.0,74,0.00,CLR,CLR,0.00,WeatherDisplay:10.36,2013-03-31 07:58:00,
2013-03-31 04:03:00,32.1,24.7,30.03,SSE,148,0.0,0.0,74,0.00,CLR,CLR,0.00,WeatherDisplay:10.36,2013-03-31 08:03:00,
2013-03-31 04:08:00,31.9,24.6,30.03,SSE,148,0.0,0.0,74,0.00,CLR,CLR,0.00,WeatherDisplay:10.36,2013-03-31 08:08:00,
2013-03-31 04:13:00,31.9,24.6,30.03,SSE,148,0.0,0.0,74,0.00,CLR,CLR,0.00,WeatherDisplay:10.36,2013-03-31 08:13:00,
2013-03-31 04:18:00,31.9,24.6,30.03,SSE,148,0.0,0.0,74,0.00,CLR,CLR,0.00,WeatherDisplay:10.36,2013-03-31 08:18:00,
2013-03-31 04:24:00,31.8,24.5,30.03,SSE,148,0.0,0.0,74,0.00,CLR,CLR,0.00,WeatherDisplay:10.36,2013-03-31 08:24:00,
2013-03-31 04:29:00,31.8,24.5,30.03,SSE,148,0.0,0.0,74,0.00,CLR,CLR,0.00,WeatherDisplay:10.36,2013-03-31 08:29:00,
2013-03-31 04:34:00,31.6,24.6,30.03,SSE,148,0.0,0.0,75,0.00,CLR,CLR,0.00,WeatherDisplay:10.36,2013-03-31 08:34:00,
2013-03-31 04:39:00,31.5,24.8,30.03,SSE,148,0.0,0.0,76,0.00,CLR,CLR,0.00,WeatherDisplay:10.36,2013-03-31 08:39:00,
2013-03-31 04:44:00,31.3,24.6,30.03,SSE,148,0.0,0.0,76,0.00,CLR,CLR,0.00,WeatherDisplay:10.36,2013-03-31 08:44:00,
2013-03-31 04:50:00,31.3,24.9,30.03,SSE,148,0.0,0.0,77,0.00,CLR,CLR,0.00,WeatherDisplay:10.36,2013-03-31 08:50:00,
2013-03-31 04:55:00,31.3,24.6,30.03,SSE,148,0.0,0.0,76,0.00,CLR,CLR,0.00,WeatherDisplay:10.36,2013-03-31 08:55:00,
2013-03-31 05:00:00,31.2,24.5,30.03,SSE,148,0.0,0.0,76,0.00,CLR,CLR,0.00,WeatherDisplay:10.36,2013-03-31 09:00:00,
2013-03-31 05:05:00,31.2,24.5,30.03,SSE,148,0.0,0.0,76,0.00,CLR,CLR,0.00,WeatherDisplay:10.36,2013-03-31 09:05:00,
2013-03-31 05:10:00,31.0,24.6,30.03,SSE,148,0.0,0.0,77,0.00,CLR,CLR,0.00,WeatherDisplay:10.36,2013-03-31 09:10:00,
2013-03-31 05:16:00,30.9,24.5,30.03,SSE,148,0.0,0.0,77,0.00,CLR,CLR,0.00,WeatherDisplay:10.36,2013-03-31 09:16:00,
2013-03-31 05:21:00,30.7,24.3,30.02,SSE,148,0.0,0.0,77,0.00,CLR,CLR,0.00,WeatherDisplay:10.36,2013-03-31 09:21:00,
2013-03-31 05:26:00,30.7,24.3,30.03,SSE,148,0.0,0.0,77,0.00,CLR,CLR,0.00,WeatherDisplay:10.36,2013-03-31 09:26:00,
2013-03-31 05:32:00,30.6,24.2,30.02,SSE,148,0.0,0.0,77,0.00,CLR,CLR,0.00,WeatherDisplay:10.36,2013-03-31 09:32:00,
2013-03-31 05:37:00,30.6,24.2,30.02,SSE,148,0.0,0.0,77,0.00,CLR,CLR,0.00,WeatherDisplay:10.36,2013-03-31 09:37:00,
2013-03-31 05:42:00,30.6,24.2,30.02,SSE,148,0.0,0.0,77,0.00,CLR,CLR,0.00,WeatherDisplay:10.36,2013-03-31 09:42:00,
2013-03-31 05:47:00,30.6,24.2,30.02,SSE,148,0.0,0.0,77,0.00,CLR,CLR,0.00,WeatherDisplay:10.36,2013-03-31 09:47:00,
2013-03-31 05:52:00,30.4,24.1,30.03,SSE,148,0.0,0.0,77,0.00,CLR,CLR,0.00,WeatherDisplay:10.36,2013-03-31 09:52:00,
2013-03-31 05:58:00,30.4,24.1,30.02,SSE,148,0.0,0.0,77,0.00,CLR,CLR,0.00,WeatherDisplay:10.36,2013-03-31 09:58:00,
2013-03-31 06:03:00,30.4,24.4,30.02,SSE,148,0.0,0.0,78,0.00,CLR,CLR,0.00,WeatherDisplay:10.36,2013-03-31 10:03:00,
2013-03-31 06:08:00,30.3,24.3,30.02,SSE,148,0.0,0.0,78,0.00,CLR,CLR,0.00,WeatherDisplay:10.36,2013-03-31 10:08:00,
2013-03-31 06:14:00,30.3,24.3,30.02,SSE,148,0.0,0.0,78,0.00,CLR,CLR,0.00,WeatherDisplay:10.36,2013-03-31 10:14:00,
2013-03-31 06:19:00,30.3,24.3,30.02,SSE,148,0.0,0.0,78,0.00,CLR,CLR,0.00,WeatherDisplay:10.36,2013-03-31 10:19:00,
2013-03-31 06:24:00,30.3,24.3,30.02,SSE,148,0.0,0.0,78,0.00,CLR,CLR,0.00,WeatherDisplay:10.36,2013-03-31 10:24:00,
2013-03-31 06:29:00,30.4,24.4,30.02,SSE,148,0.0,0.0,78,0.00,CLR,CLR,0.00,WeatherDisplay:10.36,2013-03-31 10:29:00,
2013-03-31 06:35:00,30.4,24.4,30.02,SSE,148,0.0,0.0,78,0.00,CLR,CLR,0.00,WeatherDisplay:10.36,2013-03-31 10:35:00,
2013-03-31 06:40:00,30.4,24.4,30.02,SSE,148,0.0,0.0,78,0.00,CLR,CLR,0.00,WeatherDisplay:10.36,2013-03-31 10:40:00,
2013-03-31 06:45:00,30.3,24.3,30.02,SSE,148,0.0,0.0,78,0.00,CLR,CLR,0.00,WeatherDisplay:10.36,2013-03-31 10:45:00,
2013-03-31 06:50:00,30.3,24.3,30.02,SSE,148,0.0,0.0,78,0.00,CLR,CLR,0.00,WeatherDisplay:10.36,2013-03-31 10:50:00,
2013-03-31 06:55:00,30.4,24.4,30.02,SSE,148,0.0,0.0,78,0.00,CLR,CLR,0.00,WeatherDisplay:10.36,2013-03-31 10:55:00,
2013-03-31 07:00:00,30.4,24.7,30.02,SSE,148,0.0,0.0,79,0.00,CLR,CLR,0.00,WeatherDisplay:10.36,2013-03-31 11:00:00,
2013-03-31 07:05:00,30.4,24.7,30.02,SSE,148,0.0,0.0,79,0.00,CLR,CLR,0.00,WeatherDisplay:10.36,2013-03-31 11:05:00,
2013-03-31 07:11:00,30.4,24.7,30.02,SSE,148,0.0,0.0,79,0.00,CLR,CLR,0.00,WeatherDisplay:10.36,2013-03-31 11:11:00,
2013-03-31 07:16:00,30.6,24.9,30.02,SSE,148,0.0,0.0,79,0.00,CLR,CLR,0.00,WeatherDisplay:10.36,2013-03-31 11:16:00,
2013-03-31 07:32:00,30.9,25.2,30.02,SSE,148,0.0,0.0,79,0.00,CLR,CLR,0.00,WeatherDisplay:10.36,2013-03-31 11:32:00,
2013-03-31 07:37:00,31.2,25.4,30.02,SSE,148,0.0,0.0,79,0.00,CLR,CLR,0.00,WeatherDisplay:10.36,2013-03-31 11:37:00,
2013-03-31 07:43:00,31.3,25.5,30.02,SSE,148,0.0,0.0,79,0.00,CLR,CLR,0.00,WeatherDisplay:10.36,2013-03-31 11:43:00,
2013-03-31 07:48:00,31.5,25.7,30.02,SSE,148,0.0,0.0,79,0.00,CLR,CLR,0.00,WeatherDisplay:10.36,2013-03-31 11:48:00,
2013-03-31 07:53:00,31.8,26.0,30.02,SSE,148,0.0,0.0,79,0.00,CLR,CLR,0.00,WeatherDisplay:10.36,2013-03-31 11:53:00,
2013-03-31 07:58:00,31.9,26.1,30.02,SSE,148,0.0,0.0,79,0.00,CLR,CLR,0.00,WeatherDisplay:10.36,2013-03-31 11:58:00,
2013-03-31 08:03:00,32.2,26.4,30.02,SSE,148,0.0,0.0,79,0.00,CLR,CLR,0.00,WeatherDisplay:10.36,2013-03-31 12:03:00,
2013-03-31 08:08:00,32.7,26.9,30.02,SSE,148,0.0,0.0,79,0.00,CLR,CLR,0.00,WeatherDisplay:10.36,2013-03-31 12:08:00,
2013-03-31 08:13:00,33.1,26.7,30.02,SSE,148,0.0,0.0,77,0.00,CLR,CLR,0.00,WeatherDisplay:10.36,2013-03-31 12:13:00,
2013-03-31 08:18:00,33.5,26.7,30.01,SSE,148,0.0,0.0,76,0.00,CLR,CLR,0.00,WeatherDisplay:10.36,2013-03-31 12:18:00,
2013-03-31 08:23:00,34.1,26.7,30.02,SSE,148,0.0,0.0,74,0.00,CLR,CLR,0.00,WeatherDisplay:10.36,2013-03-31 12:23:00,
2013-03-31 08:29:00,34.7,26.9,30.01,SSE,148,0.0,0.0,73,0.00,CLR,CLR,0.00,WeatherDisplay:10.36,2013-03-31 12:29:00,
2013-03-31 08:34:00,35.3,27.2,30.01,SSE,148,0.0,0.0,72,0.00,CLR,CLR,0.00,WeatherDisplay:10.36,2013-03-31 12:34:00,
2013-03-31 08:39:00,35.9,27.1,30.01,SSE,148,0.0,0.0,70,0.00,CLR,CLR,0.00,WeatherDisplay:10.36,2013-03-31 12:39:00,
2013-03-31 08:44:00,36.5,27.3,30.01,SSE,148,0.0,0.0,69,0.00,CLR,CLR,0.00,WeatherDisplay:10.36,2013-03-31 12:44:00,
2013-03-31 08:50:00,36.8,27.2,30.01,SSE,148,0.0,0.0,68,0.00,CLR,CLR,0.00,WeatherDisplay:10.36,2013-03-31 12:50:00,
2013-03-31 08:55:00,37.2,27.2,30.01,SSE,148,0.0,0.0,67,0.00,CLR,CLR,0.00,WeatherDisplay:10.36,2013-03-31 12:55:00,
2013-03-31 09:00:00,37.8,27.5,30.01,SSE,148,0.0,0.0,66,0.00,CLR,CLR,0.00,WeatherDisplay:10.36,2013-03-31 13:00:00,
2013-03-31 09:05:00,38.3,27.6,30.01,SSE,148,0.0,0.0,65,0.00,CLR,CLR,0.00,WeatherDisplay:10.36,2013-03-31 13:05:00,
2013-03-31 09:10:00,39.0,27.8,30.01,SSE,148,0.0,0.0,64,0.00,CLR,CLR,0.00,WeatherDisplay:10.36,2013-03-31 13:10:00,
2013-03-31 09:15:00,39.8,27.8,30.01,SSE,148,0.0,0.0,62,0.00,CLR,CLR,0.00,WeatherDisplay:10.36,2013-03-31 13:15:00,
2013-03-31 09:20:00,40.4,28.0,30.01,SSE,148,0.0,0.0,61,0.00,CLR,CLR,0.00,WeatherDisplay:10.36,2013-03-31 13:20:00,
2013-03-31 09:25:00,41.2,28.4,30.00,SSE,148,0.0,0.0,60,0.00,CLR,CLR,0.00,WeatherDisplay:10.36,2013-03-31 13:25:00,
2013-03-31 09:30:00,42.1,27.9,30.00,SSE,148,0.0,0.0,57,0.00,CLR,CLR,0.00,WeatherDisplay:10.36,2013-03-31 13:30:00,
2013-03-31 09:35:00,42.8,28.6,30.00,SSE,148,0.0,0.0,57,0.00,CLR,CLR,0.00,WeatherDisplay:10.36,2013-03-31 13:35:00,
2013-03-31 09:41:00,43.6,28.9,30.00,SSE,148,0.0,0.0,56,0.00,CLR,CLR,0.00,WeatherDisplay:10.36,2013-03-31 13:41:00,
2013-03-31 09:46:00,44.2,28.6,30.00,SSE,148,0.0,0.0,54,0.00,CLR,CLR,0.00,WeatherDisplay:10.36,2013-03-31 13:46:00,
2013-03-31 09:51:00,44.8,28.7,30.00,SSE,148,0.0,0.0,53,0.00,CLR,CLR,0.00,WeatherDisplay:10.36,2013-03-31 13:51:00,
2013-03-31 09:56:00,45.4,28.8,30.00,SSW,210,3.5,3.5,52,0.00,CLR,CLR,0.00,WeatherDisplay:10.36,2013-03-31 13:56:00,
2013-03-31 10:01:00,45.7,28.6,30.00,SE,143,2.3,2.3,51,0.00,CLR,CLR,0.00,WeatherDisplay:10.36,2013-03-31 14:01:00,
2013-03-31 10:06:00,46.1,29.0,30.00,SSW,208,3.5,3.5,51,0.00,CLR,CLR,0.00,WeatherDisplay:10.36,2013-03-31 14:06:00,
2013-03-31 10:11:00,46.8,28.6,30.00,South,169,0.0,0.0,49,0.00,CLR,CLR,0.00,WeatherDisplay:10.36,2013-03-31 14:11:00,
2013-03-31 10:17:00,47.3,28.6,30.00,South,183,2.0,2.0,48,0.00,CLR,CLR,0.00,WeatherDisplay:10.36,2013-03-31 14:17:00,
2013-03-31 10:22:00,47.6,28.9,29.99,SSE,153,2.0,2.0,48,0.00,CLR,CLR,0.00,WeatherDisplay:10.36,2013-03-31 14:22:00,
2013-03-31 10:27:00,47.9,28.1,29.99,SW,216,3.5,3.5,46,0.00,CLR,CLR,0.00,WeatherDisplay:10.36,2013-03-31 14:27:00,
2013-03-31 10:32:00,48.2,28.9,29.99,SW,216,1.2,0.0,47,0.00,CLR,CLR,0.00,WeatherDisplay:10.36,2013-03-31 14:32:00,
2013-03-31 10:37:00,48.6,28.7,29.99,SSW,194,2.3,2.3,46,0.00,CLR,CLR,0.00,WeatherDisplay:10.36,2013-03-31 14:37:00,
2013-03-31 10:42:00,49.2,28.7,29.99,SSW,192,2.3,2.3,45,0.00,CLR,CLR,0.00,WeatherDisplay:10.36,2013-03-31 14:42:00,
2013-03-31 10:47:00,49.6,28.0,29.99,SE,146,2.3,0.0,43,0.00,CLR,CLR,0.00,WeatherDisplay:10.36,2013-03-31 14:47:00,
2013-03-31 10:52:00,50.1,28.4,29.98,South,186,3.5,3.5,43,0.00,CLR,CLR,0.00,WeatherDisplay:10.36,2013-03-31 14:52:00,
2013-03-31 10:58:00,50.5,28.8,29.98,South,186,1.2,0.0,43,0.00,CLR,CLR,0.00,WeatherDisplay:10.36,2013-03-31 14:58:00,
2013-03-31 11:03:00,51.1,28.8,29.98,South,186,0.0,0.0,42,0.00,CLR,CLR,0.00,WeatherDisplay:10.36,2013-03-31 15:03:00,
2013-03-31 11:08:00,52.0,29.0,29.98,SE,137,3.5,3.5,41,0.00,CLR,CLR,0.00,WeatherDisplay:10.36,2013-03-31 15:08:00,
2013-03-31 11:13:00,52.5,28.8,29.97,South,179,4.0,4.0,40,0.00,CLR,CLR,0.00,WeatherDisplay:10.36,2013-03-31 15:13:00,
2013-03-31 11:18:00,53.1,27.5,29.97,South,179,3.5,3.5,37,0.00,CLR,CLR,0.00,WeatherDisplay:10.36,2013-03-31 15:18:00,
2013-03-31 11:23:00,53.6,27.3,29.97,SE,130,3.0,3.0,36,0.00,CLR,CLR,0.00,WeatherDisplay:10.36,2013-03-31 15:23:00,
2013-03-31 11:28:00,53.8,26.8,29.97,SE,135,3.5,3.5,35,0.00,CLR,CLR,0.00,WeatherDisplay:10.36,2013-03-31 15:28:00,
2013-03-31 11:33:00,54.1,27.7,29.96,SSE,162,3.5,3.5,36,0.00,CLR,CLR,0.00,WeatherDisplay:10.36,2013-03-31 15:33:00,
2013-03-31 11:38:00,54.2,27.1,29.96,SSE,163,9.2,9.2,35,0.00,CLR,CLR,0.00,WeatherDisplay:10.36,2013-03-31 15:38:00,
2013-03-31 11:43:00,54.1,27.0,29.96,SE,139,3.5,3.5,35,0.00,CLR,CLR,0.00,WeatherDisplay:10.36,2013-03-31 15:43:00,
2013-03-31 11:48:00,53.9,26.1,29.95,ENE,63,3.5,3.5,34,0.00,CLR,CLR,0.00,WeatherDisplay:10.36,2013-03-31 15:48:00,
2013-03-31 11:53:00,54.1,27.7,29.95,ENE,57,4.0,4.0,36,0.00,CLR,CLR,0.00,WeatherDisplay:10.36,2013-03-31 15:53:00,
2013-03-31 11:58:00,54.4,26.6,29.95,SSE,159,3.5,3.5,34,0.00,CLR,CLR,0.00,WeatherDisplay:10.36,2013-03-31 15:58:00,
2013-03-31 12:03:00,54.4,26.6,29.94,SE,127,1.2,1.2,34,0.00,CLR,CLR,0.00,WeatherDisplay:10.36,2013-03-31 16:03:00,
2013-03-31 12:09:00,54.7,26.8,29.94,ESE,113,3.5,3.5,34,0.00,CLR,CLR,0.00,WeatherDisplay:10.36,2013-03-31 16:09:00,
2013-03-31 12:14:00,55.0,27.8,29.94,East,82,2.3,2.3,35,0.00,CLR,CLR,0.00,WeatherDisplay:10.36,2013-03-31 16:14:00,
2013-03-31 12:19:00,55.1,28.6,29.94,ENE,77,3.5,3.5,36,0.00,CLR,CLR,0.00,WeatherDisplay:10.36,2013-03-31 16:19:00,
2013-03-31 12:24:00,55.4,28.9,29.94,ESE,106,3.0,3.0,36,0.00,CLR,CLR,0.00,WeatherDisplay:10.36,2013-03-31 16:24:00,
2013-03-31 12:29:00,55.6,28.4,29.93,East,89,3.5,3.5,35,0.00,CLR,CLR,0.00,WeatherDisplay:10.36,2013-03-31 16:29:00,
2013-03-31 12:35:00,55.6,27.6,29.93,SE,141,0.0,0.4,34,0.00,CLR,CLR,0.00,WeatherDisplay:10.36,2013-03-31 16:35:00,
2013-03-31 12:40:00,55.4,28.9,29.92,ENE,72,4.6,4.6,36,0.00,CLR,CLR,0.00,WeatherDisplay:10.36,2013-03-31 16:40:00,
2013-03-31 12:45:00,55.3,29.4,29.92,ENE,66,2.3,2.3,37,0.00,CLR,CLR,0.00,WeatherDisplay:10.36,2013-03-31 16:45:00,
2013-03-31 12:50:00,55.4,29.5,29.92,East,81,0.0,2.0,37,0.00,CLR,CLR,0.00,WeatherDisplay:10.36,2013-03-31 16:50:00,
2013-03-31 12:55:00,55.6,30.3,29.92,East,88,0.0,4.0,38,0.00,CLR,CLR,0.00,WeatherDisplay:10.36,2013-03-31 16:55:00,
2013-03-31 13:00:00,55.3,30.7,29.91,East,86,0.0,4.0,39,0.00,CLR,CLR,0.00,WeatherDisplay:10.36,2013-03-31 17:00:00,
2013-03-31 13:05:00,55.1,30.6,29.91,East,95,0.0,3.0,39,0.00,CLR,CLR,0.00,WeatherDisplay:10.36,2013-03-31 17:05:00,
2013-03-31 13:10:00,54.8,30.3,29.91,East,83,0.0,3.0,39,0.00,CLR,CLR,0.00,WeatherDisplay:10.36,2013-03-31 17:10:00,
2013-03-31 13:15:00,54.4,30.6,29.91,East,86,3.5,3.5,40,0.00,CLR,CLR,0.00,WeatherDisplay:10.36,2013-03-31 17:15:00,
2013-03-31 13:20:00,54.1,31.5,29.90,East,92,6.9,6.9,42,0.00,CLR,CLR,0.00,WeatherDisplay:10.36,2013-03-31 17:20:00,
2013-03-31 13:25:00,53.8,31.8,29.90,ENE,74,3.5,3.5,43,0.00,CLR,CLR,0.00,WeatherDisplay:10.36,2013-03-31 17:25:00,
2013-03-31 13:31:00,53.5,32.7,29.90,ENE,74,3.0,3.0,45,0.00,CLR,CLR,0.00,WeatherDisplay:10.36,2013-03-31 17:31:00,
2013-03-31 13:36:00,53.5,33.2,29.89,East,79,3.0,3.0,46,0.00,CLR,CLR,0.00,WeatherDisplay:10.36,2013-03-31 17:36:00,
2013-03-31 13:41:00,53.5,34.3,29.89,ENE,60,3.5,3.5,48,0.00,CLR,CLR,0.00,WeatherDisplay:10.36,2013-03-31 17:41:00,
2013-03-31 13:47:00,53.5,34.8,29.89,East,80,2.3,2.3,49,0.00,CLR,CLR,0.00,WeatherDisplay:10.36,2013-03-31 17:47:00,
2013-03-31 13:52:00,53.6,34.9,29.89,ENE,70,5.0,5.0,49,0.00,CLR,CLR,0.00,WeatherDisplay:10.36,2013-03-31 17:52:00,
2013-03-31 13:57:00,53.5,34.8,29.89,East,86,3.5,3.5,49,0.00,CLR,CLR,0.00,WeatherDisplay:10.36,2013-03-31 17:57:00,
2013-03-31 14:02:00,53.5,35.3,29.88,East,89,1.2,0.0,50,0.00,CLR,CLR,0.00,WeatherDisplay:10.36,2013-03-31 18:02:00,
2013-03-31 14:07:00,53.6,35.4,29.88,ENE,69,4.6,4.6,50,0.00,CLR,CLR,0.00,WeatherDisplay:10.36,2013-03-31 18:07:00,
2013-03-31 14:12:00,53.3,36.1,29.88,East,81,3.5,3.5,52,0.00,CLR,CLR,0.00,WeatherDisplay:10.36,2013-03-31 18:12:00,
2013-03-31 14:18:00,53.2,36.0,29.88,WNW,290,2.3,2.3,52,0.00,CLR,CLR,0.00,WeatherDisplay:10.36,2013-03-31 18:18:00,
2013-03-31 14:23:00,53.3,36.1,29.88,ENE,66,3.5,3.5,52,0.00,CLR,CLR,0.00,WeatherDisplay:10.36,2013-03-31 18:23:00,
2013-03-31 14:29:00,53.5,36.3,29.87,ENE,72,3.5,3.5,52,0.00,CLR,CLR,0.00,WeatherDisplay:10.36,2013-03-31 18:29:00,
2013-03-31 14:34:00,53.3,36.1,29.87,ENE,70,3.5,3.5,52,0.00,CLR,CLR,0.00,WeatherDisplay:10.36,2013-03-31 18:34:00,
2013-03-31 14:39:00,53.3,36.6,29.87,East,83,2.3,2.3,53,0.00,CLR,CLR,0.00,WeatherDisplay:10.36,2013-03-31 18:39:00,
2013-03-31 14:44:00,53.1,36.4,29.86,ENE,60,6.0,6.0,53,0.00,CLR,CLR,0.00,WeatherDisplay:10.36,2013-03-31 18:44:00,
2013-03-31 14:50:00,52.8,36.6,29.86,ESE,118,1.2,1.2,54,0.00,CLR,CLR,0.00,WeatherDisplay:10.36,2013-03-31 18:50:00,
2013-03-31 14:55:00,52.6,36.4,29.86,East,85,2.0,5.0,54,0.00,CLR,CLR,0.00,WeatherDisplay:10.36,2013-03-31 18:55:00,
2013-03-31 15:00:00,52.6,36.4,29.85,ENE,78,2.0,3.0,54,0.00,CLR,CLR,0.00,WeatherDisplay:10.36,2013-03-31 19:00:00,
2013-03-31 15:05:00,52.5,36.3,29.85,ENE,61,3.5,3.5,54,0.00,CLR,CLR,0.00,WeatherDisplay:10.36,2013-03-31 19:05:00,
2013-03-31 15:10:00,52.2,36.5,29.85,ENE,72,3.5,3.5,55,0.00,CLR,CLR,0.00,WeatherDisplay:10.36,2013-03-31 19:10:00,
2013-03-31 15:15:00,51.7,36.9,29.85,ENE,59,3.0,3.0,57,0.00,CLR,CLR,0.00,WeatherDisplay:10.36,2013-03-31 19:15:00,
2013-03-31 15:20:00,51.4,36.7,29.84,NE,41,6.9,0.0,57,0.00,CLR,CLR,0.00,WeatherDisplay:10.36,2013-03-31 19:20:00,
2013-03-31 15:26:00,51.4,36.7,29.84,ENE,60,3.5,3.5,57,0.00,CLR,CLR,0.00,WeatherDisplay:10.36,2013-03-31 19:26:00,
2013-03-31 15:31:00,51.3,36.1,29.84,ENE,76,3.5,3.5,56,0.00,CLR,CLR,0.00,WeatherDisplay:10.36,2013-03-31 19:31:00,
2013-03-31 15:36:00,51.1,35.9,29.83,East,86,5.8,5.8,56,0.00,CLR,CLR,0.00,WeatherDisplay:10.36,2013-03-31 19:36:00,
2013-03-31 15:41:00,51.1,35.5,29.83,ENE,67,4.6,4.6,55,0.00,CLR,CLR,0.00,WeatherDisplay:10.36,2013-03-31 19:41:00,
2013-03-31 15:46:00,51.1,35.5,29.83,ENE,60,4.6,4.6,55,0.00,CLR,CLR,0.00,WeatherDisplay:10.36,2013-03-31 19:46:00,
2013-03-31 15:51:00,51.1,35.0,29.83,ENE,62,0.0,0.4,54,0.00,CLR,CLR,0.00,WeatherDisplay:10.36,2013-03-31 19:51:00,
2013-03-31 15:56:00,51.1,35.0,29.83,SE,139,3.5,0.0,54,0.00,CLR,CLR,0.00,WeatherDisplay:10.36,2013-03-31 19:56:00,
2013-03-31 16:02:00,51.0,34.9,29.83,East,90,3.5,3.5,54,0.00,CLR,CLR,0.00,WeatherDisplay:10.36,2013-03-31 20:02:00,
2013-03-31 16:07:00,50.8,35.7,29.82,ENE,73,4.6,4.6,56,0.00,CLR,CLR,0.00,WeatherDisplay:10.36,2013-03-31 20:07:00,
2013-03-31 16:12:00,50.5,35.4,29.82,East,87,1.2,1.2,56,0.00,CLR,CLR,0.00,WeatherDisplay:10.36,2013-03-31 20:12:00,
2013-03-31 16:17:00,50.4,35.3,29.82,ENE,68,3.5,3.5,56,0.00,CLR,CLR,0.00,WeatherDisplay:10.36,2013-03-31 20:17:00,
2013-03-31 16:22:00,50.4,35.3,29.82,ENE,59,1.2,1.2,56,0.00,CLR,CLR,0.00,WeatherDisplay:10.36,2013-03-31 20:22:00,
2013-03-31 16:27:00,50.4,35.3,29.82,ESE,113,3.5,3.5,56,0.00,CLR,CLR,0.00,WeatherDisplay:10.36,2013-03-31 20:27:00,
2013-03-31 16:33:00,50.2,35.5,29.82,East,84,3.5,3.5,57,0.00,CLR,CLR,0.00,WeatherDisplay:10.36,2013-03-31 20:33:00,
2013-03-31 16:38:00,50.1,35.4,29.82,East,94,2.3,0.0,57,0.00,CLR,CLR,0.00,WeatherDisplay:10.36,2013-03-31 20:38:00,
2013-03-31 16:43:00,50.1,35.9,29.82,ENE,77,3.5,3.5,58,0.00,CLR,CLR,0.00,WeatherDisplay:10.36,2013-03-31 20:43:00,
2013-03-31 16:49:00,49.9,36.1,29.81,East,96,2.3,2.3,59,0.00,CLR,CLR,0.00,WeatherDisplay:10.36,2013-03-31 20:49:00,
2013-03-31 16:54:00,49.9,36.1,29.80,ENE,75,3.5,3.5,59,0.00,CLR,CLR,0.00,WeatherDisplay:10.36,2013-03-31 20:54:00,
2013-03-31 16:59:00,49.8,36.0,29.80,ENE,70,3.5,3.5,59,0.00,CLR,CLR,0.00,WeatherDisplay:10.36,2013-03-31 20:59:00,
2013-03-31 17:04:00,49.8,36.0,29.79,ENE,69,4.6,4.6,59,0.00,CLR,CLR,0.00,WeatherDisplay:10.36,2013-03-31 21:04:00,
2013-03-31 17:09:00,49.6,36.3,29.79,ENE,71,3.5,3.5,60,0.00,CLR,CLR,0.00,WeatherDisplay:10.36,2013-03-31 21:09:00,
2013-03-31 17:14:00,49.5,36.6,29.79,ENE,77,3.5,3.5,61,0.00,CLR,CLR,0.00,WeatherDisplay:10.36,2013-03-31 21:14:00,
2013-03-31 17:19:00,49.2,36.7,29.79,ENE,75,3.0,3.0,62,0.00,CLR,CLR,0.00,WeatherDisplay:10.36,2013-03-31 21:19:00,
2013-03-31 17:24:00,49.1,37.0,29.79,ENE,75,3.5,3.5,63,0.00,CLR,CLR,0.00,WeatherDisplay:10.36,2013-03-31 21:24:00,
2013-03-31 17:29:00,48.9,37.3,29.79,East,88,3.5,3.5,64,0.00,CLR,CLR,0.00,WeatherDisplay:10.36,2013-03-31 21:29:00,
2013-03-31 17:34:00,48.6,37.7,29.80,East,84,3.5,3.5,66,0.00,CLR,CLR,0.00,WeatherDisplay:10.36,2013-03-31 21:34:00,
2013-03-31 17:40:00,48.3,38.2,29.79,East,81,1.0,4.0,68,0.00,CLR,CLR,0.00,WeatherDisplay:10.36,2013-03-31 21:40:00,
2013-03-31 17:45:00,47.9,38.6,29.79,East,80,2.0,5.0,70,0.00,CLR,CLR,0.00,WeatherDisplay:10.36,2013-03-31 21:45:00,
2013-03-31 17:50:00,47.4,38.5,29.79,ENE,76,0.0,5.0,71,0.00,CLR,CLR,0.00,WeatherDisplay:10.36,2013-03-31 21:50:00,
2013-03-31 17:55:00,47.1,38.9,29.79,ENE,62,3.5,3.5,73,0.00,CLR,CLR,0.00,WeatherDisplay:10.36,2013-03-31 21:55:00,
2013-03-31 18:00:00,46.8,39.3,29.79,ENE,63,2.3,0.0,75,0.00,CLR,CLR,0.00,WeatherDisplay:10.36,2013-03-31 22:00:00,
2013-03-31 18:05:00,46.7,39.5,29.79,NNW,332,0.0,2.0,76,0.00,CLR,CLR,0.00,WeatherDisplay:10.36,2013-03-31 22:05:00,
2013-03-31 18:10:00,46.4,39.6,29.78,NW,305,1.0,3.0,77,0.00,RA,RA,0.01,WeatherDisplay:10.36,2013-03-31 22:10:00,
2013-03-31 18:15:00,46.2,39.4,29.77,East,79,2.3,2.3,77,0.01,RA,RA,0.01,WeatherDisplay:10.36,2013-03-31 22:15:00,
2013-03-31 18:20:00,46.1,39.3,29.77,East,82,1.2,1.2,77,0.01,CLR,CLR,0.01,WeatherDisplay:10.36,2013-03-31 22:20:00,
2013-03-31 18:25:00,46.1,39.6,29.77,East,82,2.3,2.3,78,0.01,CLR,CLR,0.01,WeatherDisplay:10.36,2013-03-31 22:25:00,
2013-03-31 18:30:00,46.0,39.5,29.76,ENE,59,3.0,3.0,78,0.01,CLR,CLR,0.01,WeatherDisplay:10.36,2013-03-31 22:30:00,
2013-03-31 18:35:00,46.0,39.5,29.76,ENE,67,1.0,0.0,78,0.01,CLR,CLR,0.01,WeatherDisplay:10.36,2013-03-31 22:35:00,
2013-03-31 18:40:00,46.0,39.9,29.75,ENE,68,2.3,2.3,79,0.01,CLR,CLR,0.01,WeatherDisplay:10.36,2013-03-31 22:40:00,
2013-03-31 18:45:00,45.8,39.7,29.75,ENE,68,1.2,0.0,79,0.01,CLR,CLR,0.01,WeatherDisplay:10.36,2013-03-31 22:45:00,
2013-03-31 18:50:00,45.7,39.9,29.75,ENE,68,1.2,0.0,80,0.01,CLR,CLR,0.01,WeatherDisplay:10.36,2013-03-31 22:50:00,
2013-03-31 18:55:00,45.7,40.2,29.75,ENE,68,0.0,0.0,81,0.01,CLR,CLR,0.01,WeatherDisplay:10.36,2013-03-31 22:55:00,
2013-03-31 19:01:00,45.7,40.5,29.75,ENE,67,2.3,2.3,82,0.01,CLR,CLR,0.01,WeatherDisplay:10.36,2013-03-31 23:01:00,
2013-03-31 19:06:00,45.5,40.3,29.74,East,80,2.3,2.3,82,0.01,CLR,CLR,0.01,WeatherDisplay:10.36,2013-03-31 23:06:00,
2013-03-31 19:11:00,45.5,40.3,29.74,East,80,1.2,1.2,82,0.00,CLR,CLR,0.01,WeatherDisplay:10.36,2013-03-31 23:11:00,
2013-03-31 19:16:00,45.4,40.2,29.73,ENE,75,2.3,2.3,82,0.00,CLR,CLR,0.01,WeatherDisplay:10.36,2013-03-31 23:16:00,
2013-03-31 19:21:00,45.4,40.2,29.72,ENE,68,2.3,2.3,82,0.01,RA,RA,0.02,WeatherDisplay:10.36,2013-03-31 23:21:00,
2013-03-31 19:26:00,45.2,40.3,29.72,ENE,68,0.0,0.0,83,0.01,RA,RA,0.02,WeatherDisplay:10.36,2013-03-31 23:26:00,
2013-03-31 19:31:00,45.2,40.3,29.72,ENE,68,0.0,0.0,83,0.01,CLR,CLR,0.02,WeatherDisplay:10.36,2013-03-31 23:31:00,
2013-03-31 19:37:00,45.1,40.6,29.72,ENE,77,0.0,0.0,84,0.01,CLR,CLR,0.02,WeatherDisplay:10.36,2013-03-31 23:37:00,
2013-03-31 19:42:00,45.1,40.6,29.71,ENE,77,0.0,0.0,84,0.01,CLR,CLR,0.02,WeatherDisplay:10.36,2013-03-31 23:42:00,
2013-03-31 19:47:00,44.9,40.7,29.71,ENE,77,1.2,0.0,85,0.01,CLR,CLR,0.02,WeatherDisplay:10.36,2013-03-31 23:47:00,
2013-03-31 19:52:00,44.9,41.0,29.70,ENE,77,0.0,0.0,86,0.02,RA,RA,0.03,WeatherDisplay:10.36,2013-03-31 23:52:00,
2013-03-31 19:57:00,44.8,41.2,29.70,ENE,75,1.0,1.0,87,0.02,RA,RA,0.04,WeatherDisplay:10.36,2013-03-31 23:57:00,
2013-03-31 20:02:00,44.6,41.0,29.70,ENE,75,0.0,0.0,87,0.03,RA,RA,0.04,WeatherDisplay:10.36,2013-04-01 00:02:00,
2013-03-31 20:08:00,44.6,41.3,29.70,ENE,75,0.0,0.0,88,0.04,RA,RA,0.05,WeatherDisplay:10.36,2013-04-01 00:08:00,
2013-03-31 20:13:00,44.5,41.2,29.70,ENE,75,0.0,0.0,88,0.04,RA,RA,0.05,WeatherDisplay:10.36,2013-04-01 00:13:00,
2013-03-31 20:18:00,44.5,41.5,29.70,ENE,75,2.3,0.0,89,0.04,RA,RA,0.06,WeatherDisplay:10.36,2013-04-01 00:18:00,
2013-03-31 20:23:00,44.5,41.7,29.69,ENE,76,2.3,2.3,90,0.04,RA,RA,0.06,WeatherDisplay:10.36,2013-04-01 00:23:00,
2013-03-31 20:28:00,44.5,41.7,29.69,ENE,75,1.2,0.0,90,0.04,CLR,CLR,0.06,WeatherDisplay:10.36,2013-04-01 00:28:00,
2013-03-31 20:34:00,44.5,41.7,29.69,ENE,75,0.0,0.0,90,0.05,RA,RA,0.07,WeatherDisplay:10.36,2013-04-01 00:34:00,
2013-03-31 20:39:00,44.5,42.0,29.68,ENE,68,2.0,2.0,91,0.05,RA,RA,0.07,WeatherDisplay:10.36,2013-04-01 00:39:00,
2013-03-31 20:44:00,44.5,42.0,29.68,ENE,72,2.3,2.3,91,0.05,CLR,CLR,0.08,WeatherDisplay:10.36,2013-04-01 00:44:00,
2013-03-31 20:49:00,44.5,42.0,29.68,ENE,58,1.0,1.0,91,0.06,RA,RA,0.08,WeatherDisplay:10.36,2013-04-01 00:49:00,
2013-03-31 20:54:00,44.5,42.3,29.69,ENE,58,0.0,0.0,92,0.05,RA,RA,0.08,WeatherDisplay:10.36,2013-04-01 00:54:00,
2013-03-31 20:59:00,44.5,42.3,29.69,ENE,77,2.3,2.3,92,0.04,CLR,CLR,0.08,WeatherDisplay:10.36,2013-04-01 00:59:00,
2013-03-31 21:04:00,44.5,42.3,29.68,ENE,77,0.0,0.0,92,0.04,CLR,CLR,0.08,WeatherDisplay:10.36,2013-04-01 01:04:00,
2013-03-31 21:09:00,44.5,42.3,29.68,ENE,77,0.0,0.0,92,0.04,RA,RA,0.09,WeatherDisplay:10.36,2013-04-01 01:09:00,
2013-03-31 21:14:00,44.5,42.3,29.68,ENE,77,0.0,0.0,92,0.04,RA,RA,0.09,WeatherDisplay:10.36,2013-04-01 01:14:00,
2013-03-31 21:20:00,44.5,42.3,29.67,SSE,155,4.6,0.0,92,0.03,CLR,CLR,0.09,WeatherDisplay:10.36,2013-04-01 01:20:00,
2013-03-31 21:25:00,44.5,42.6,29.67,SE,134,1.0,2.0,93,0.00,RA,RA,0.10,WeatherDisplay:10.36,2013-04-01 01:25:00,
2013-03-31 21:30:00,44.5,42.6,29.67,ESE,107,0.0,1.0,93,0.00,RA,RA,0.11,WeatherDisplay:10.36,2013-04-01 01:30:00,
2013-03-31 21:35:00,44.5,42.6,29.67,East,85,2.3,2.3,93,0.04,RA,RA,0.11,WeatherDisplay:10.36,2013-04-01 01:35:00,
2013-03-31 21:40:00,44.5,42.6,29.66,ENE,63,0.0,0.0,93,0.05,RA,RA,0.12,WeatherDisplay:10.36,2013-04-01 01:40:00,
2013-03-31 21:45:00,44.5,42.6,29.66,ENE,61,1.2,1.2,93,0.04,RA,RA,0.12,WeatherDisplay:10.36,2013-04-01 01:45:00,
2013-03-31 21:51:00,44.3,42.4,29.65,ENE,61,1.2,0.0,93,0.05,RA,RA,0.13,WeatherDisplay:10.36,2013-04-01 01:51:00,
2013-03-31 21:56:00,44.5,42.6,29.65,ENE,62,0.0,0.0,93,0.05,RA,RA,0.14,WeatherDisplay:10.36,2013-04-01 01:56:00,
2013-03-31 22:01:00,44.3,42.4,29.64,ENE,62,0.0,0.0,93,0.06,RA,RA,0.14,WeatherDisplay:10.36,2013-04-01 02:01:00,
2013-03-31 22:07:00,44.3,42.4,29.64,ENE,62,0.0,0.0,93,0.05,RA,RA,0.14,WeatherDisplay:10.36,2013-04-01 02:07:00,
2013-03-31 22:12:00,44.5,42.6,29.64,ENE,62,0.0,0.0,93,0.05,CLR,CLR,0.14,WeatherDisplay:10.36,2013-04-01 02:12:00,
2013-03-31 22:17:00,44.5,42.6,29.64,ENE,62,0.0,0.0,93,0.05,CLR,CLR,0.14,WeatherDisplay:10.36,2013-04-01 02:17:00,
2013-03-31 22:22:00,44.5,42.6,29.65,ENE,62,0.0,0.0,93,0.04,CLR,CLR,0.14,WeatherDisplay:10.36,2013-04-01 02:22:00,
2013-03-31 22:28:00,44.6,42.7,29.65,ENE,62,0.0,0.0,93,0.04,CLR,CLR,0.14,WeatherDisplay:10.36,2013-04-01 02:28:00,
2013-03-31 22:33:00,44.6,42.7,29.64,ENE,62,0.0,0.0,93,0.03,CLR,CLR,0.14,WeatherDisplay:10.36,2013-04-01 02:33:00,
2013-03-31 22:38:00,44.6,42.7,29.64,ENE,62,0.0,0.0,93,0.02,CLR,CLR,0.14,WeatherDisplay:10.36,2013-04-01 02:38:00,
2013-03-31 22:44:00,44.6,43.0,29.64,ENE,62,0.0,0.0,94,0.02,CLR,CLR,0.14,WeatherDisplay:10.36,2013-04-01 02:44:00,
2013-03-31 22:49:00,44.6,43.0,29.64,ENE,62,0.0,0.0,94,0.01,CLR,CLR,0.14,WeatherDisplay:10.36,2013-04-01 02:49:00,
2013-03-31 22:54:00,44.6,43.0,29.63,ENE,62,0.0,0.0,94,0.01,CLR,CLR,0.14,WeatherDisplay:10.36,2013-04-01 02:54:00,
2013-03-31 22:59:00,44.6,43.0,29.63,ENE,62,0.0,0.0,94,0.00,CLR,CLR,0.14,WeatherDisplay:10.36,2013-04-01 02:59:00,
2013-03-31 23:04:00,44.6,43.0,29.63,ENE,62,0.0,0.0,94,0.00,CLR,CLR,0.14,WeatherDisplay:10.36,2013-04-01 03:04:00,
2013-03-31 23:10:00,44.6,43.0,29.62,ENE,62,0.0,0.0,94,0.00,CLR,CLR,0.14,WeatherDisplay:10.36,2013-04-01 03:10:00,
2013-03-31 23:15:00,44.6,43.0,29.61,ENE,62,0.0,0.0,94,0.00,CLR,CLR,0.14,WeatherDisplay:10.36,2013-04-01 03:15:00,
2013-03-31 23:20:00,44.6,43.0,29.61,ENE,62,0.0,0.0,94,0.00,CLR,CLR,0.14,WeatherDisplay:10.36,2013-04-01 03:20:00,
2013-03-31 23:25:00,44.6,43.0,29.62,ENE,62,0.0,0.0,94,0.00,CLR,CLR,0.14,WeatherDisplay:10.36,2013-04-01 03:25:00,
2013-03-31 23:30:00,44.6,43.0,29.61,ENE,62,0.0,0.0,94,0.00,CLR,CLR,0.14,WeatherDisplay:10.36,2013-04-01 03:30:00,
2013-03-31 23:35:00,44.6,43.0,29.62,ENE,62,0.0,0.0,94,0.00,CLR,CLR,0.14,WeatherDisplay:10.36,2013-04-01 03:35:00,
2013-03-31 23:40:00,44.6,43.0,29.62,ENE,62,0.0,0.0,94,0.00,CLR,CLR,0.14,WeatherDisplay:10.36,2013-04-01 03:40:00,
2013-03-31 23:45:00,44.6,43.0,29.61,ENE,62,0.0,0.0,94,0.00,CLR,CLR,0.14,WeatherDisplay:10.36,2013-04-01 03:45:00,
2013-03-31 23:50:00,44.5,42.9,29.61,ENE,62,0.0,0.0,94,0.00,CLR,CLR,0.14,WeatherDisplay:10.36,2013-04-01 03:50:00,
2013-03-31 23:55:00,44.5,42.9,29.61,ENE,62,0.0,0.0,94,0.00,CLR,CLR,0.14,WeatherDisplay:10.36,2013-04-01 03:55:00,